Regional Weather Roundup
Issued by NWS

Home | Current Version | Previous Version | Graphics & Text | Print | Product List | Glossary On
Versions: 1 2 3 4 5 6 7 8 9 10 11 12 13 14 15 16 17 18 19 20 21 22 23 24 25 26 27 28 29 30 31 32 33 34 35 36 37 38 39 40 41 42 43 44 45 46 47 48 49 50
000
ASUS43 KIND 030559
RWRIN

WEATHER ROUNDUP FOR INDIANA
NATIONAL WEATHER SERVICE INDIANAPOLIS IN
100 AM EST SAT DEC 03 2016

NOTE: "FAIR" INDICATES FEW OR NO CLOUDS BELOW 12,000 FEET WITH NO
SIGNIFICANT WEATHER AND/OR OBSTRUCTIONS TO VISIBILITY.

* - STATION DOES NOT REPORT WEATHER SUCH AS PRECIPITATION OR FOG.

+ - STATION NOT QUALITY CONTROLLED BY THE NATIONAL WEATHER SERVICE.
    USE DATA WITH CAUTION...ESPECIALLY DEWPOINT AND RELATIVE
    HUMIDITY OBSERVATIONS.

INZ001>003-010>013-019-020-030700-
NORTHWEST INDIANA

CITY           SKY/WX    TMP DP  RH WIND       PRES   REMARKS
MONTICELLO +   CLOUDY    36  30  79 W3        30.31S
6HR MIN TEMP:  36; 6HR MAX TEMP:  38;


$$

LMZ046-743>745-030700-
SOUTHERN LAKE MICHIGAN

STATION/POSITION TIME  TEMP    WIND        PRES    WAVE
                       AIR SEA DIR/SP/G            HT
                 (UTC) (F)     (DEG/KT/KT) (MB)    (FT)
BURNS HARBOR     0540   37     230/  9/ 12 1026.4S
MICHIGAN CITY    0530   37     300/ 11/ 14   N/A

$$

INZ004-005-014>016-021>024-030700-
NORTH CENTRAL INDIANA

CITY           SKY/WX    TMP DP  RH WIND       PRES   REMARKS
GOSHEN         CLOUDY    35  27  72 SW5       30.28F WCI  31
6HR MIN TEMP:  35; 6HR MAX TEMP:  36;

SOUTH BEND     CLOUDY    35  27  72 NW5       30.30S WCI  31
6HR MIN TEMP:  34; 6HR MAX TEMP:  36;


$$

INZ006>009-017-018-025>027-030700-
NORTHEAST INDIANA

CITY           SKY/WX    TMP DP  RH WIND       PRES   REMARKS
ANGOLA *+      CLOUDY    36  28  75 W5        30.27R
FORT WAYNE     CLOUDY    36  28  73 NW5       30.28F
6HR MIN TEMP:  36; 6HR MAX TEMP:  37;

KENDALLVILLE + CLOUDY    34  28  76 W3        30.27F

$$

INZ028-029-035-036-043>045-051>053-030700-
WEST CENTRAL INDIANA

CITY           SKY/WX    TMP DP  RH WIND       PRES   REMARKS
CRAWFORDSVL +  CLOUDY    35  34  95 NW5       30.31F WCI  31
6HR MIN TEMP:  35; 6HR MAX TEMP:  36;

GREENCASTLE +  CLOUDY    36  36 100 CALM      30.32F
LAFAYETTE      CLOUDY    36  32  85 NW5       30.32S
6HR MIN TEMP:  36; 6HR MAX TEMP:  38; 6HR PCP: TRACE;

TERRE HAUTE    CLOUDY    39  32  76 CALM      30.33F
6HR MIN TEMP:  39; 6HR MAX TEMP:  40;


$$

INZ030>032-037>040-046>048-054>057-064-065-030700-
CENTRAL INDIANA

CITY           SKY/WX    TMP DP  RH WIND       PRES   REMARKS
GREENWOOD *+   CLOUDY    38  34  88 W3        30.32F
6HR MIN TEMP:  38; 6HR MAX TEMP:  39;

INDIANAPOLIS   CLOUDY    37  34  89 W6        30.31F
6HR MIN TEMP:  37; 6HR MAX TEMP:  39; 6HR PCP: TRACE;

-EAGLE CREEK   CLOUDY    38  34  85 W3        30.30F
6HR MIN TEMP:  38; 6HR MAX TEMP:  39; 6HR PCP: TRACE;

KOKOMO +       CLOUDY    36  33  89 W6        30.31S
6HR MIN TEMP:  36; 6HR MAX TEMP:  38;

SHELBYVILLE    CLOUDY    38  34  85 W6        30.31F
6HR MIN TEMP:  37; 6HR MAX TEMP:  40; 6HR PCP: TRACE;


$$

INZ033-034-041-042-049-050-058-059-030700-
EAST CENTRAL INDIANA

CITY           SKY/WX    TMP DP  RH WIND       PRES   REMARKS
MUNCIE         CLOUDY    38  32  79 W6        30.30S
6HR MIN TEMP:  38; 6HR MAX TEMP:  38;


$$

INZ060-061-067>069-081>083-085>088-030700-
SOUTHWEST INDIANA

CITY           SKY/WX    TMP DP  RH WIND       PRES   REMARKS
EVANSVILLE     CLEAR     28  26  92 W5        30.37R WCI  23
6HR MIN TEMP:  28; 6HR MAX TEMP:  41;

HUNTINGBURG *+ CLOUDY    39  32  76 CALM      30.35R
6HR MIN TEMP:  39; 6HR MAX TEMP:  42;


$$

INZ062-063-066-070>080-084-089>092-030700-
SOUTH CENTRAL AND SOUTHEAST INDIANA

CITY           SKY/WX    TMP DP  RH WIND       PRES   REMARKS
BLOOMINGTON    CLOUDY    38  30  73 CALM      30.31F
6HR MIN TEMP:  38; 6HR MAX TEMP:  40;

MADISON *+     CLOUDY    37  32  81 CALM      30.34S
SEYMOUR +      CLOUDY    39  34  81 CALM      30.32F

$$




USA.gov is the U.S. government's official web portal to all federal, state and local government web resources and services.